Location: Shenandoah County Park
(38.9356°N, 78.4524°W)
Time: 00:20:57
(UTC-04:00)

Courier 1B - Visible Passes

Search period start: 13 July 2024 00:00
Search period end: 23 July 2024 00:00
Orbit: 962 x 1209 km, 28.3° (Epoch: 12 July)

Date Brightness Start Highest point End Pass type
(mag) Time Alt. Az. Time Alt. Az. Time Alt. Az.
13 Jul 9.3 22:17:15 10° SW 22:20:16 14° SSW 22:22:26 12° S visible
14 Jul 9.2 21:22:33 10° WSW 21:26:43 18° SSW 21:30:50 10° SSE visible
16 Jul 9.6 21:30:55 10° SW 21:32:33 11° SSW 21:34:09 10° SSW visible
